Ontario, OR

1:33 AM MDT on April 20, 2018 (GMT -0600)
Ontario Municipal

Weather History for KONO - March, 2014

Change the Weather History Date:

Friday, March 28, 2014

  Actual Average Record
Temperature  
Mean Temperature 45 °F 47 °F  
Max Temperature 57 °F 60 °F 83 °F (1966)
Min Temperature 33 °F 33 °F 19 °F (1956)
Degree Days  
Heating Degree Days 20 18  
Month to date heating degree days 538 616  
Since 1 July heating degree days 5294 5246  
Cooling Degree Days 0 0  
Month to date cooling degree days 0 0  
Year to date cooling degree days 0 0  
Moisture  
Dew Point 37 °F    
Average Humidity 72    
Maximum Humidity 92    
Minimum Humidity 51    
Precipitation  
Precipitation 0.03 in 0.03 in 0.27 in (1983)
Month to date precipitation 1.25 0.92  
Year to date precipitation 3.17 2.90  
Sea Level Pressure  
Sea Level Pressure 30.03 in    
Wind  
Wind Speed 8 mph (SE)    
Max Wind Speed 23 mph    
Max Gust Speed 29 mph    
Visibility 10 miles    
Events Rain    
T = Trace of Precipitation, MM = Missing Value Source: NWS Daily Summary

Daily Weather History Graph

Daily Weather History Graph

Search for Another Location

Airport or City:

Astronomy

Mar. 28, 2014 Rise Set
Actual Time 7:36 AM MDT 8:10 PM MDT
Civil Twilight 7:07 AM MDT 8:39 PM MDT
Nautical Twilight 6:33 AM MDT 9:13 PM MDT
Astronomical Twilight 5:57 AM MDT 9:49 PM MDT
Moon 6:14 AM MDT (3/28) 6:08 PM MDT (3/28)
Length of Visible Light 13h 31m
Length of Day
12h 33m
Waning Crescent, 6% of the Moon is Illuminated
Mar 28
Waning Crescent
Mar 30
New
Apr 7
First Quarter
Apr 15
Full
Apr 22
Last Quarter

Hourly Weather History & Observations

Time (MDT) Temp. Windchill Dew Point Humidity Pressure Visibility Wind Dir Wind Speed Gust Speed Precip Events Conditions
12:53 AM 37.9 °F - 34.0 °F 86% 30.04 in 10.0 mi Calm Calm - N/A   Overcast
1:53 AM 34.0 °F 29.8 °F 30.9 °F 89% 30.06 in 10.0 mi SSW 4.6 mph - N/A   Clear
2:53 AM 35.1 °F - 32.0 °F 89% 30.07 in 10.0 mi Calm Calm - N/A   Overcast
3:53 AM 34.0 °F - 30.9 °F 89% 30.08 in 10.0 mi Calm Calm - N/A   Overcast
4:53 AM 35.1 °F - 32.0 °F 89% 30.08 in 10.0 mi Calm Calm - N/A   Overcast
5:53 AM 36.0 °F 33.3 °F 33.1 °F 89% 30.08 in 10.0 mi NNE 3.5 mph - N/A   Overcast
6:53 AM 35.1 °F - 33.1 °F 92% 30.09 in 10.0 mi Calm Calm - N/A   Mostly Cloudy
7:53 AM 35.1 °F - 33.1 °F 92% 30.10 in 10.0 mi Calm Calm - N/A   Overcast
8:53 AM 37.9 °F - 36.0 °F 93% 30.12 in 10.0 mi Calm Calm - 0.01 in Rain Light Rain
9:53 AM 42.1 °F 39.2 °F 37.0 °F 82% 30.12 in 10.0 mi SE 4.6 mph - 0.00 in   Overcast
10:53 AM 44.1 °F 41.5 °F 37.9 °F 79% 30.13 in 10.0 mi SE 4.6 mph - 0.00 in   Overcast
11:53 AM 48.0 °F - 39.9 °F 74% 30.12 in 10.0 mi SE 8.1 mph - 0.00 in Rain Light Rain
12:53 PM 50.0 °F - 39.9 °F 68% 30.10 in 10.0 mi SE 12.7 mph - 0.01 in   Overcast
1:53 PM 53.1 °F - 41.0 °F 64% 30.07 in 10.0 mi SE 17.3 mph 24.2 mph N/A   Overcast
2:53 PM 55.0 °F - 39.9 °F 57% 30.03 in 10.0 mi SE 17.3 mph - N/A   Mostly Cloudy
3:53 PM 53.1 °F - 42.1 °F 66% 30.03 in 10.0 mi SSE 12.7 mph - 0.01 in Rain Light Rain
4:53 PM 55.0 °F - 43.0 °F 64% 29.99 in 10.0 mi ESE 8.1 mph - 0.00 in   Overcast
5:53 PM 55.9 °F - 43.0 °F 62% 29.96 in 10.0 mi ESE 10.4 mph - N/A   Overcast
6:53 PM 55.9 °F - 42.1 °F 60% 29.95 in 10.0 mi SE 11.5 mph - N/A   Overcast
7:53 PM 54.0 °F - 41.0 °F 62% 29.93 in 10.0 mi ESE 16.1 mph - 0.00 in   Overcast
8:53 PM 53.1 °F - 41.0 °F 64% 29.91 in 10.0 mi SE 16.1 mph - N/A   Mostly Cloudy
9:53 PM 55.0 °F - 37.9 °F 53% 29.90 in 10.0 mi SE 17.3 mph 27.6 mph N/A   Overcast
10:53 PM 53.1 °F - 37.9 °F 57% 29.88 in 10.0 mi SSE 16.1 mph 20.7 mph N/A   Overcast
11:53 PM 52.0 °F - 39.0 °F 61% 29.87 in 10.0 mi SSE 11.5 mph - N/A   Overcast